Weather History for KLIC - January, 2013

Change the Weather History Date:

Saturday, January 26, 2013

  Actual Average Record
Temperature  
Mean Temperature 38 °F -  
Max Temperature 57 °F - 67 °F (2015)
Min Temperature 18 °F - -7 °F (2004)
Degree Days  
Heating Degree Days 27    
Month to date heating degree days 1080  
Cooling Degree Days 0    
Month to date cooling degree days 0  
Moisture  
Dew Point 25 °F    
Average Humidity 68    
Maximum Humidity 100    
Minimum Humidity 29    
Precipitation  
Precipitation T in - 0.24 in (1998)
Month to date precipitation 0.16  
Year to date precipitation 0.16  
Sea Level Pressure  
Sea Level Pressure 29.93 in    
Wind  
Wind Speed 5 mph (NNE)    
Max Wind Speed 15 mph    
Max Gust Speed 16 mph    
Visibility 10 miles    
Events Rain    
T = Trace of Precipitation, MM = Missing Value Source: NWS Daily Summary

Daily Weather History Graph

Daily Weather History Graph

Search for Another Location

Airport or City:

Trip Planner

Search our weather history database for the weather conditions in past years. The results will help you decide how hot, cold, wet, or windy it might be!

Date:

Astronomy

Jan. 26, 2013 Rise Set
Actual Time 7:06 AM MST 5:08 PM MST
Civil Twilight 6:37 AM MST 5:37 PM MST
Nautical Twilight 6:05 AM MST 6:09 PM MST
Astronomical Twilight 5:33 AM MST 6:41 PM MST
Moon 5:05 PM MST (1/26) 6:25 AM MST (1/26)
Length of Visible Light 10h 59m
Length of Day
10h 02m
Full, 100% of the Moon is Illuminated
Jan 26
Full
Jan 26
Full
Feb 3
Last Quarter
Feb 10
New
Feb 17
First Quarter

Hourly Weather History & Observations

Time (MST) Temp. Windchill Dew Point Humidity Pressure Visibility Wind Dir Wind Speed Gust Speed Precip Events Conditions
12:55 AM 19.0 °F 12.3 °F 17.1 °F 92% 30.08 in 10.0 mi North 4.6 mph - N/A   Clear
1:55 AM 21.9 °F 17.2 °F 19.0 °F 89% 30.04 in 10.0 mi NNW 3.5 mph - N/A   Clear
2:55 AM 26.1 °F 19.4 °F 21.0 °F 81% 30.01 in 10.0 mi North 5.8 mph - N/A   Clear
3:55 AM 21.9 °F 14.5 °F 19.0 °F 89% 30.01 in 10.0 mi NW 5.8 mph - N/A   Clear
4:55 AM 21.0 °F 14.6 °F 18.0 °F 88% 30.04 in 10.0 mi NNW 4.6 mph - N/A   Clear
5:55 AM 19.9 °F 13.4 °F 18.0 °F 92% 30.08 in 10.0 mi North 4.6 mph - N/A   Clear
6:55 AM 19.0 °F 12.3 °F 17.1 °F 92% 30.12 in 10.0 mi NW 4.6 mph - N/A   Clear
7:55 AM 27.0 °F - 21.9 °F 81% 30.09 in 10.0 mi Calm Calm - N/A   Clear
8:55 AM 39.9 °F - 27.0 °F 60% 30.05 in 10.0 mi Calm Calm - N/A   Clear
9:55 AM 50.0 °F - 27.0 °F 41% 30.02 in 10.0 mi NNE 3.5 mph - N/A   Clear
10:55 AM 53.1 °F - 24.1 °F 32% 29.98 in 10.0 mi Calm Calm - N/A   Clear
11:55 AM 55.0 °F - 25.0 °F 31% 29.94 in 10.0 mi SE 5.8 mph - N/A   Clear
12:55 PM 55.0 °F - 25.0 °F 31% 29.91 in 10.0 mi SE 10.4 mph - N/A   Scattered Clouds
1:55 PM 55.9 °F - 24.1 °F 29% 29.87 in 10.0 mi SSE 12.7 mph - N/A   Overcast
2:55 PM 53.1 °F - 24.1 °F 32% 29.85 in 10.0 mi SE 12.7 mph - N/A   Overcast
3:55 PM 50.0 °F - 25.0 °F 38% 29.86 in 10.0 mi ESE 8.1 mph - N/A   Overcast
4:55 PM 46.9 °F - 26.1 °F 44% 29.86 in 10.0 mi ESE 6.9 mph - N/A   Overcast
5:55 PM 45.0 °F 40.1 °F 26.1 °F 48% 29.86 in 10.0 mi ESE 9.2 mph - N/A   Overcast
6:55 PM 41.0 °F - 30.0 °F 65% 29.89 in 10.0 mi Calm Calm - 0.00 in Rain Light Rain
7:55 PM 37.9 °F 33.5 °F 35.1 °F 89% 29.85 in 10.0 mi North 5.8 mph - 0.00 in Rain Light Rain
8:55 PM 37.0 °F 34.5 °F 35.1 °F 93% 29.77 in 10.0 mi North 3.5 mph - 0.00 in   Overcast
9:55 PM 35.1 °F - 33.1 °F 92% 29.73 in 10.0 mi Calm Calm - N/A   Overcast
10:55 PM 28.9 °F 23.9 °F 28.9 °F 100% 29.72 in 10.0 mi North 4.6 mph - N/A   Clear
11:55 PM 28.0 °F 20.8 °F 27.0 °F 96% 29.68 in 10.0 mi North 6.9 mph - N/A   Clear